[[{"header":{"parameterUnit":"m.s-1","parameterCategory":1,"la1":30.2991,"la2":30.254,"lo1":-89.0895,"lo2":-89.0444,"dy":0.0017,"dx":0.0017,"nx":28,"ny":28,"refTime":"2024-04-07T03:00:00:Z","depth":0,"parameterNumber":2,"parameterNumberName":"U-component_of_WINDS"},"data":[0,0,0,0,0,0,0,0,0,0,0,0,0,0,0,0,0,0,0,0,0,0,0,0,0,0,0,0,0,0,0,0,0,0,0,0,0,0,0,0,0,0,0,0,0,0,0,0,0,0,0,0,0,0,0,0,0,0,-1.7964,-1.7963,0,-1.7915,-1.7915,-1.7914,-1.7844,-1.7843,-1.7842,-1.784,-1.779,-1.779,-1.7789,0,0,0,0,0,0,0,0,0,0,0,0,0,-1.7996,-1.7995,-1.7964,-1.7963,-1.7963,-1.7916,-1.7915,-1.7914,-1.7844,-1.7843,-1.7841,-1.784,-1.779,-1.779,-1.7789,0,0,0,0,0,0,0,0,0,0,0,0,0,-1.7968,-1.7995,-1.7964,-1.7922,-1.7918,-1.7916,-1.7915,-1.7914,-1.7844,-1.7843,-1.7841,-1.7839,-1.779,-1.779,-1.7789,-1.7824,0,0,-1.7788,-1.7788,0,0,0,0,0,0,0,0,-1.797,-1.7967,-1.7929,-1.7925,-1.792,-1.7884,-1.7907,-1.7884,-1.7845,-1.7872,-1.784,-1.7838,-1.7822,-1.7819,-1.7814,-1.7822,-1.7819,-1.7788,-1.7788,-1.7788,-1.7788,0,0,0,0,0,0,0,-1.7972,-1.7969,-1.7945,-1.7928,-1.7923,-1.7906,-1.79,-1.7903,-1.7858,-1.787,-1.7865,-1.786,-1.782,-1.7815,-1.7813,-1.7819,-1.7788,-1.7788,-1.7788,-1.7788,-1.7852,-1.7854,0,0,0,0,0,0,-1.798,-1.7971,-1.7946,-1.7943,-1.7941,-1.7907,-1.79,-1.7897,-1.7858,-1.785,-1.7861,-1.7857,-1.7816,-1.7813,-1.7811,-1.7848,-1.7788,-1.7788,-1.7787,-1.785,-1.7852,-1.7854,0,0,0,0,0,0,-1.7981,-1.7978,-1.7948,-1.7956,-1.795,-1.7908,-1.7906,-1.7897,-1.7892,-1.7852,-1.7843,-1.7865,-1.7815,-1.7811,-1.7821,-1.7845,-1.7788,-1.7787,-1.7848,-1.7851,-1.7853,-1.7924,0,0,0,0,0,0,-1.7982,-1.7979,-1.7992,-1.7956,-1.795,-1.796,-1.7907,-1.7898,-1.7892,-1.7885,-1.7852,-1.7845,-1.7813,-1.7822,-1.7821,-1.7844,-1.7787,-1.7845,-1.7849,-1.7852,-1.792,-1.7929,-1.7938,0,0,0,0,0,-1.7983,-1.8014,-1.7993,-1.799,-1.7965,-1.7962,-1.7958,-1.7921,-1.7894,-1.7907,-1.7881,-1.7846,-1.7843,-1.7824,-1.7822,-1.7845,-1.7844,-1.7848,-1.7852,-1.7916,-1.7927,-1.7937,0,0,0,0,0,0,-1.8053,-1.8008,-1.7985,-1.8004,-1.7987,-1.795,-1.7964,-1.7934,-1.7924,-1.7918,-1.7872,-1.7865,-1.7881,-1.7864,-1.7843,-1.7877,-1.7838,-1.7842,-1.7887,-1.7898,-1.7907,-1.791,-1.7787,0,0,0,0,0,-1.807,-1.8071,-1.8032,-1.8053,-1.8046,-1.8007,-1.8004,-1.7977,-1.7957,-1.7949,-1.7924,-1.7906,-1.7901,-1.7899,-1.7892,-1.7917,-1.7909,-1.7932,-1.7941,-1.7949,-1.7953,-1.7965,-1.7975,-1.7868,-1.7868,-1.7868,0,0,-1.8106,-1.8082,-1.8085,-1.8067,-1.805,-1.8052,-1.8001,-1.8005,-1.8006,-1.795,-1.7958,-1.7939,-1.7916,-1.7934,-1.7941,-1.792,-1.798,-1.7954,-1.7961,-1.796,-1.797,-1.798,-1.7989,-1.7871,-1.7871,-1.787,0,0,-1.8173,-1.8155,-1.8171,-1.8156,-1.8132,-1.8106,-1.811,-1.8077,-1.8062,-1.807,-1.8028,-1.8028,-1.802,-1.8006,-1.7997,-1.806,-1.8027,-1.8059,-1.8105,-1.8118,-1.8126,-1.8133,-1.8155,-1.8164,-1.8063,-1.8063,-1.8063,0,-1.8221,-1.8222,-1.8182,-1.8189,-1.8182,-1.8132,-1.8147,-1.8135,-1.811,-1.8106,-1.8084,-1.8073,-1.8054,-1.8068,-1.8084,-1.8079,-1.8081,-1.8062,-1.8128,-1.8135,-1.8141,-1.8161,-1.817,-1.8067,-1.8067,-1.8066,-1.8066,0,-1.8282,-1.8284,-1.8299,-1.8277,-1.8271,-1.8283,-1.8245,-1.8244,-1.8218,-1.8194,-1.8202,-1.8178,-1.8165,-1.8167,-1.8141,-1.8177,-1.8165,-1.8137,-1.8097,-1.8156,-1.8174,-1.8182,-1.8073,-1.8071,-1.807,-1.8069,0,0,-1.839,-1.8346,-1.8353,-1.8342,-1.8312,-1.8313,-1.8322,-1.831,-1.831,-1.8295,-1.8301,-1.8296,-1.8269,-1.826,-1.8232,-1.8243,-1.8294,-1.8212,-1.8211,-1.8228,-1.8332,-1.8354,-1.8364,-1.8273,-1.8274,-1.8275,-1.8334,0,-1.8451,-1.8464,-1.8429,-1.845,-1.8451,-1.8404,-1.8412,-1.8395,-1.8373,-1.837,-1.8346,-1.8344,-1.8308,-1.8302,-1.8311,-1.8286,-1.8314,-1.8281,-1.8278,-1.8278,-1.8284,-1.8373,-1.8396,-1.8453,-1.8341,-1.8342,-1.8343,0,-1.8523,-1.8512,-1.8534,-1.8503,-1.8502,-1.851,-1.8496,-1.8495,-1.8474,-1.8458,-1.8448,-1.8416,-1.8422,-1.8385,-1.8393,-1.8372,-1.8368,-1.8356,-1.8357,-1.8355,-1.8314,-1.8373,-1.847,-1.8479,-1.8354,-1.8353,-1.8352,0,-1.8599,-1.859,-1.8602,-1.8594,-1.8559,-1.8565,-1.8551,-1.8529,-1.8524,-1.8512,-1.8509,-1.8498,-1.8492,-1.8484,-1.845,-1.8426,-1.8462,-1.8422,-1.8448,-1.8449,-1.8458,-1.8457,-1.8555,-1.8457,-1.8457,-1.8456,-1.8456,0,-1.867,-1.8686,-1.8636,-1.8643,-1.8659,-1.8618,-1.8635,-1.8616,-1.8596,-1.8599,-1.8558,-1.8561,-1.8516,-1.8514,-1.8488,-1.8499,-1.8496,-1.8483,-1.8475,-1.8486,-1.8488,-1.8483,-1.8478,-1.8459,-1.8458,-1.8458,-1.8457,0,-1.8758,-1.8725,-1.8735,-1.8701,-1.8693,-1.8706,-1.8677,-1.8682,-1.8658,-1.8662,-1.8661,-1.8623,-1.8619,-1.8585,-1.8573,-1.8555,-1.8576,-1.8561,-1.8583,-1.8578,-1.8606,-1.8604,-1.8703,-1.8714,-1.861,-1.8611,-1.8611,0,-1.8805,-1.8816,-1.8783,-1.8782,-1.877,-1.8769,-1.8764,-1.8725,-1.8721,-1.8699,-1.8707,-1.87,-1.8692,-1.8688,-1.8659,-1.865,-1.8635,-1.867,-1.8633,-1.8643,-1.8635,-1.8634,-1.8635,-1.8678,-1.8679,-1.868,-1.8681,0,-1.8893,-1.8876,-1.8871,-1.886,-1.8855,-1.8845,-1.8832,-1.8833,-1.879,-1.8788,-1.8784,-1.8778,-1.8766,-1.8759,-1.8745,-1.873,-1.8699,-1.8693,-1.8699,-1.871,-1.8722,-1.8716,-1.8604,-1.8691,-1.869,-1.8689,-1.8689,-1.8688,-1.8961,-1.8968,-1.8947,-1.8942,-1.8928,-1.8917,-1.8921,-1.8897,-1.8893,-1.8881,-1.8858,-1.8857,-1.8836,-1.8814,-1.8802,-1.8801,-1.8782,-1.879,-1.8792,-1.8795,-1.88,-1.8723,-1.8798,-1.8798,-1.8797,-1.8797,-1.8797,0,-1.9046,-1.903,-1.9026,-1.9009,-1.9006,-1.8977,-1.8961,-1.896,-1.896,-1.8944,-1.8937,-1.8932,-1.8926,-1.8897,-1.8887,-1.8892,-1.8877,-1.889,-1.8889,-1.8887,-1.8818,-1.8814,-1.8903,-1.8903,-1.8902,-1.8902,-1.8902,-1.8902,-1.909,-1.9101,-1.9082,-1.9085,-1.9069,-1.9068,-1.9061,-1.9051,-1.9038,-1.9034,-1.9029,-1.901,-1.8989,-1.8977,-1.897,-1.8962,-1.896,-1.8979,-1.8966,-1.8902,-1.8891,-1.8882,-1.8878,-1.8979,-1.8979,-1.9034,-1.9035,-1.9035]},{"header":{"parameterUnit":"m.s-1","parameterCategory":1,"la1":30.2991,"la2":30.254,"lo1":-89.0895,"lo2":-89.0444,"dy":0.0017,"dx":0.0017,"nx":28,"ny":28,"refTime":"2024-04-07T03:00:00:Z","depth":0,"parameterNumber":3,"parameterNumberName":"V-component_of_WINDS"},"data":[0,0,0,0,0,0,0,0,0,0,0,0,0,0,0,0,0,0,0,0,0,0,0,0,0,0,0,0,0,0,0,0,0,0,0,0,0,0,0,0,0,0,0,0,0,0,0,0,0,0,0,0,0,0,0,0,0,0,2.8461,2.8461,0,2.85,2.85,2.8501,2.8505,2.8505,2.8504,2.8504,2.854,2.8542,2.8543,0,0,0,0,0,0,0,0,0,0,0,0,0,2.8387,2.8389,2.8461,2.8461,2.8462,2.85,2.85,2.8501,2.8505,2.8505,2.8504,2.8504,2.854,2.8542,2.8543,0,0,0,0,0,0,0,0,0,0,0,0,0,2.8422,2.8389,2.8461,2.8469,2.847,2.85,2.85,2.8501,2.8505,2.8505,2.8504,2.8503,2.854,2.8541,2.8543,2.8567,0,0,2.855,2.855,0,0,0,0,0,0,0,0,2.842,2.8425,2.8467,2.8468,2.8469,2.8497,2.8488,2.8523,2.8505,2.8492,2.8504,2.8503,2.8526,2.8529,2.8538,2.8569,2.8571,2.855,2.8551,2.8552,2.8552,0,0,0,0,0,0,0,2.8418,2.8423,2.8476,2.8468,2.8469,2.8469,2.8474,2.8495,2.8512,2.8493,2.8493,2.8498,2.8527,2.8536,2.8539,2.8571,2.855,2.8551,2.8553,2.8553,2.8624,2.8625,0,0,0,0,0,0,2.8414,2.8421,2.8475,2.8477,2.8443,2.8471,2.8476,2.8489,2.8511,2.8514,2.8498,2.8498,2.8533,2.8536,2.854,2.857,2.8552,2.8554,2.8555,2.8624,2.8624,2.8625,0,0,0,0,0,0,2.8413,2.8419,2.8473,2.8449,2.8456,2.8473,2.8487,2.849,2.8499,2.8516,2.8518,2.8505,2.8532,2.8537,2.8561,2.8571,2.8555,2.8556,2.8623,2.8624,2.8625,2.8629,0,0,0,0,0,0,2.841,2.8418,2.8428,2.845,2.8458,2.8494,2.8488,2.8491,2.8503,2.8503,2.8522,2.8525,2.8532,2.8558,2.8563,2.8573,2.8558,2.8622,2.8623,2.8624,2.8628,2.863,2.8632,0,0,0,0,0,2.8408,2.8427,2.8429,2.8435,2.847,2.8495,2.8499,2.8508,2.8504,2.8513,2.8524,2.8524,2.8569,2.856,2.8566,2.8577,2.8621,2.8623,2.8624,2.8627,2.863,2.8632,0,0,0,0,0,0,2.8405,2.843,2.8432,2.8459,2.8475,2.8496,2.8508,2.8511,2.8528,2.8527,2.8536,2.854,2.8564,2.8573,2.8562,2.8602,2.8595,2.8597,2.8595,2.8597,2.8599,2.8596,2.856,0,0,0,0,0,2.8408,2.8427,2.8447,2.8469,2.8477,2.8491,2.8502,2.8508,2.8524,2.8531,2.8543,2.8558,2.8576,2.8587,2.8604,2.863,2.8634,2.864,2.8642,2.8644,2.8646,2.866,2.8663,2.863,2.863,2.863,0,0,2.8413,2.8429,2.844,2.8469,2.8482,2.85,2.8497,2.8516,2.853,2.8533,2.8557,2.8567,2.8584,2.8609,2.862,2.8617,2.8656,2.8646,2.8647,2.8648,2.8662,2.8665,2.8668,2.8631,2.8631,2.8631,0,0,2.8432,2.8447,2.8467,2.848,2.8501,2.851,2.8515,2.8536,2.8543,2.8567,2.857,2.8586,2.8616,2.8628,2.8638,2.8664,2.8664,2.8669,2.8678,2.8692,2.8695,2.8697,2.8706,2.8709,2.8671,2.8671,2.8671,0,2.8436,2.8465,2.8476,2.8496,2.8509,2.8514,2.8534,2.8546,2.857,2.8578,2.8575,2.8613,2.8625,2.8653,2.8659,2.8668,2.8673,2.8666,2.8694,2.8696,2.8699,2.8707,2.8711,2.8671,2.8671,2.8671,2.8671,0,2.8469,2.8489,2.8503,2.8528,2.8542,2.8561,2.8574,2.8587,2.8592,2.8601,2.8626,2.8641,2.8661,2.8668,2.8672,2.8697,2.8694,2.8692,2.8685,2.8702,2.871,2.8714,2.8672,2.8672,2.8672,2.8671,0,0,2.8487,2.8519,2.8524,2.8535,2.8559,2.8574,2.8594,2.8615,2.8626,2.8642,2.8659,2.8685,2.8683,2.8695,2.87,2.8713,2.8732,2.8709,2.871,2.8713,2.876,2.8761,2.8765,2.8733,2.8733,2.8734,2.8758,0,2.8509,2.8546,2.8557,2.8588,2.8606,2.8612,2.8629,2.8645,2.8655,2.8671,2.8681,2.87,2.8696,2.8704,2.8716,2.8727,2.8741,2.8725,2.8748,2.8748,2.8743,2.8769,2.8771,2.8793,2.8762,2.8762,2.8763,0,2.854,2.8559,2.8592,2.8614,2.8622,2.8637,2.8658,2.8674,2.8692,2.8698,2.8711,2.8716,2.8736,2.8729,2.8757,2.8746,2.8755,2.8762,2.8763,2.8765,2.8756,2.8772,2.88,2.8803,2.8768,2.8767,2.8767,0,2.855,2.8584,2.8608,2.8618,2.8643,2.8654,2.8665,2.8683,2.8695,2.8712,2.872,2.874,2.875,2.8765,2.8774,2.8768,2.8801,2.8794,2.8807,2.8806,2.8813,2.8812,2.8843,2.882,2.8819,2.8819,2.8819,0,2.8574,2.8594,2.8613,2.8628,2.865,2.8662,2.8683,2.8695,2.871,2.8727,2.8732,2.8747,2.876,2.8776,2.8784,2.8806,2.881,2.8815,2.8817,2.8815,2.8814,2.8821,2.882,2.882,2.882,2.882,2.882,0,2.8589,2.8602,2.8629,2.8652,2.8658,2.8674,2.8692,2.8707,2.8717,2.8738,2.8743,2.8759,2.8779,2.879,2.8815,2.882,2.8845,2.8846,2.8839,2.884,2.8852,2.885,2.8888,2.8893,2.8866,2.8866,2.8866,0,2.8603,2.8618,2.8643,2.8655,2.8667,2.8686,2.8699,2.8711,2.8724,2.8746,2.8758,2.8778,2.8796,2.8827,2.884,2.8859,2.8861,2.8872,2.8863,2.8861,2.8861,2.886,2.8861,2.8874,2.8874,2.8874,2.8874,0,2.8626,2.8633,2.8652,2.8674,2.8689,2.8707,2.8724,2.8733,2.8748,2.8762,2.8783,2.8797,2.8823,2.8843,2.8863,2.8873,2.8876,2.8877,2.8881,2.8879,2.8875,2.8877,2.8843,2.8876,2.8876,2.8876,2.8876,2.8876,2.8641,2.8656,2.8676,2.8697,2.8712,2.8728,2.8742,2.8755,2.8773,2.8796,2.8802,2.8824,2.8842,2.887,2.8881,2.8898,2.8895,2.8901,2.8902,2.8903,2.8904,2.8872,2.8901,2.8901,2.8901,2.8901,2.8901,0,2.8666,2.8679,2.8698,2.8723,2.874,2.8742,2.8761,2.8775,2.8795,2.8811,2.8829,2.8853,2.8873,2.8888,2.8908,2.8919,2.8921,2.8924,2.8923,2.8925,2.8905,2.8899,2.8922,2.8922,2.8922,2.8922,2.8922,2.8922,2.868,2.8705,2.8714,2.8745,2.8758,2.8781,2.8792,2.8807,2.882,2.8848,2.8865,2.8875,2.8891,2.8912,2.8931,2.8934,2.8942,2.8944,2.8948,2.8929,2.8927,2.8924,2.892,2.8946,2.8946,2.8968,2.8968,2.8968]}]]